Location: Lanoux
(43.1180°N, 1.4255°E)
Time: 02:52:36
(UTC+00:00)

Meteor 2-10 - Pass Details

Date: 20 March 2026
Orbit: 736 x 866 km, 81.2° (Epoch: 13 April)

Event Time Altitude Azimuth Distance (km) Brightness Sun altitude
Rises 03:24:58 0° 11° (N) 3,178 7.7 -27.6°
Maximum altitude 03:30:33 10° 61° (ENE) 2,264 7.4 -26.7°
Drops below altitude 10° 03:30:34 10° 61° (ENE) 2,264 7.4 -26.7°
Sets 03:36:10 0° 111° (ESE) 3,208 7.8 -25.8°
